Flag for U.S.A. Weather past 2 weeks in Acworth, Georgia, U.S.A.

Now
82 °F

Scattered clouds.


Feels Like: 82 °F
Forecast: 68 / 86 °F
Wind: 12 mph from Southeast

Location: Cobb County-McCollum Field Airport

Current Time: Aug 27, 2015 at 8:25:05 PM

Latest Report: Aug 27, 2015 at 6:47 PM


Visibility: 10 mi

Pressure: 30.03 "Hg

Humidity: 45%

Dew point: 59 °F

Location of AcworthLocation

Historic Weather in Acworth — Graph

°F

Acworth temperature yesterday

Maximum temperature yesterday: 82 °F (at 2:55 PM)
Minimum temperature yesterday: 57 °F (at 6:47 AM)
Average temperature yesterday: 73 °F

Past Weeks' High & Low Weather Summary

 TemperatureHumidityPressure
High90 °F (Aug 14, 2:47 PM)100% (Aug 23, 6:49 AM)30.22 "Hg (Aug 23, 6:49 AM)
Low57 °F (Aug 26, 6:47 AM)33% (Aug 14, 3:47 PM)29.95 "Hg (Aug 19, 4:47 PM)
Average79 °F65%30.07 "Hg
* Reported Aug 12 6:50 PM — Aug 27 6:47 PM, Acworth, Weather by CustomWeather, © 2015

Note: Actual official high and low records may vary slightly from our data, if they occured in-between our weather recording intervals... More about our weather records

Advertising

Acworth weather history for previous 24 hours

 ConditionsComfort  
Time TempWeatherWind HumidityBarometerVisibility
6:47 PM
Thu, Aug 27
82 °FScattered clouds.12 mph45%30.03 "Hg10 mi
5:48 PM82 °FScattered clouds.10 mph48%30.03 "Hg10 mi
4:47 PM84 °FScattered clouds.9 mph48%30.03 "Hg10 mi
3:47 PM84 °FScattered clouds.12 mph43%30.04 "Hg10 mi
2:50 PM82 °FScattered clouds.7 mph51%30.05 "Hg10 mi
1:47 PM84 °FBroken clouds.9 mph51%30.07 "Hg10 mi
12:47 PM81 °FPartly sunny.9 mph58%30.08 "Hg10 mi
11:47 AM79 °FScattered clouds.8 mph61%30.08 "Hg10 mi
10:48 AM77 °FScattered clouds.9 mph65%30.07 "Hg10 mi
9:51 AM73 °FSunny.8 mph74%30.07 "Hg10 mi
8:47 AM68 °FScattered clouds.No wind78%30.07 "Hg10 mi
7:47 AM64 °FClear.No wind83%30.05 "Hg10 mi
6:48 AM63 °FClear.No wind83%30.05 "Hg10 mi
10:47 PM
Wed, Aug 26
70 °FClear.5 mph60%30.03 "Hg10 mi
9:47 PM72 °FClear.7 mph61%30.03 "Hg10 mi
8:50 PM73 °FSunny.7 mph57%30.01 "Hg10 mi
Weather by CustomWeather, © 2015

See weather overviewHow to use our weather pages